Canton, GA

8:22 AM EST on November 13, 2019 (GMT -0500)
Canton

Weather History for KCNI - October, 2019

Change the Weather History Date:

Tuesday, October 15, 2019

  Actual Average (WUND) Record (WUND)
Temperature  
Mean Temperature 64 °F -  
Max Temperature 71 °F - - (-1)
Min Temperature 57 °F - - (-1)
Degree Days  
Heating Degree Days 1    
Growing Degree Days 14 (Base 50)    
Moisture  
Dew Point 55 °F    
Average Humidity 76    
Maximum Humidity 100    
Minimum Humidity 46    
Precipitation  
Precipitation 0.00 in - - ()
Sea Level Pressure  
Sea Level Pressure 30.08 in    
Wind  
Wind Speed 1 mph (ENE)    
Max Wind Speed 8 mph    
Max Gust Speed -    
Visibility 9 miles    
Events Rain    
Averages and records for this station are not official NWS values.
T = Trace of Precipitation, MM = Missing Value Source: NWS Daily Summary

Daily Weather History Graph

Daily Weather History Graph

Search for Another Location

Airport or City:

Astronomy

Oct. 15, 2019 Rise Set
Actual Time 7:42 AM EDT 7:03 PM EDT
Civil Twilight 7:17 AM EDT 7:28 PM EDT
Nautical Twilight 6:48 AM EDT 7:57 PM EDT
Astronomical Twilight 6:19 AM EDT 8:27 PM EDT
Moon 8:26 PM EDT (10/15) 9:10 AM EDT (10/15)
Length of Visible Light 12h 11m
Length of Day
11h 20m
Full, 97% of the Moon is Illuminated
Oct 15
Full
Oct 21
Last Quarter
Oct 27
New
Nov 4
First Quarter
Nov 12
Full

Hourly Weather History & Observations

Time (EDT) Temp. Dew Point Humidity Pressure Visibility Wind Dir Wind Speed Gust Speed Precip Events Conditions
12:10 AM 59.0 °F 53.6 °F 82% 30.13 in 10.0 mi Calm Calm - N/A   Clear
12:30 AM 59.0 °F 53.6 °F 82% 30.13 in 10.0 mi Calm Calm - N/A   Clear
12:50 AM 59.0 °F 51.8 °F 77% 30.13 in 10.0 mi Calm Calm - N/A   Scattered Clouds
1:10 AM 57.2 °F 53.6 °F 88% 30.13 in 10.0 mi North 3.5 mph - N/A   Mostly Cloudy
1:30 AM 60.8 °F 50.0 °F 68% 30.11 in 10.0 mi NNE 3.5 mph - N/A   Scattered Clouds
1:50 AM 57.2 °F 53.6 °F 88% 30.13 in 10.0 mi Calm Calm - N/A   Clear
2:30 AM 57.2 °F 53.6 °F 88% 30.13 in 10.0 mi Calm Calm - N/A   Mostly Cloudy
2:50 AM 59.0 °F 50.0 °F 72% 30.13 in 10.0 mi Calm Calm - N/A   Overcast
3:10 AM 59.0 °F 51.8 °F 77% 30.13 in 10.0 mi ENE 3.5 mph - N/A   Overcast
3:30 AM 57.2 °F 53.6 °F 88% 30.12 in 10.0 mi Calm Calm - N/A   Mostly Cloudy
3:50 AM 57.2 °F 53.6 °F 88% 30.12 in 10.0 mi Calm Calm - N/A   Overcast
4:10 AM 59.0 °F 51.8 °F 77% 30.12 in 10.0 mi Calm Calm - N/A   Overcast
4:30 AM 60.8 °F 51.8 °F 72% 30.12 in 10.0 mi Calm Calm - N/A   Overcast
4:50 AM 59.0 °F 51.8 °F 77% 30.11 in 10.0 mi Calm Calm - N/A   Overcast
5:10 AM 59.0 °F 53.6 °F 82% 30.12 in 10.0 mi Calm Calm - N/A   Overcast
5:30 AM 60.8 °F 50.0 °F 68% 30.12 in 10.0 mi Calm Calm - N/A   Overcast
5:50 AM 60.8 °F 50.0 °F 68% 30.12 in 10.0 mi Calm Calm - N/A   Overcast
6:10 AM 60.8 °F 51.8 °F 72% 30.12 in 10.0 mi Calm Calm - N/A   Overcast
6:30 AM 59.0 °F 53.6 °F 82% 30.13 in 10.0 mi Calm Calm - N/A   Overcast
6:50 AM 59.0 °F 51.8 °F 77% 30.13 in 10.0 mi Calm Calm - N/A   Overcast
7:10 AM 59.0 °F 55.4 °F 88% 30.13 in 10.0 mi Calm Calm - N/A   Overcast
7:30 AM 59.0 °F 51.8 °F 77% 30.13 in 10.0 mi Calm Calm - N/A   Overcast
7:50 AM 59.0 °F 51.8 °F 77% 30.12 in 10.0 mi Calm Calm - N/A   Mostly Cloudy
8:10 AM 59.0 °F 53.6 °F 82% 30.12 in 10.0 mi Calm Calm - N/A   Overcast
8:30 AM 59.0 °F 53.6 °F 82% 30.12 in 10.0 mi Calm Calm - N/A   Overcast
8:50 AM 59.0 °F 53.6 °F 82% 30.12 in 10.0 mi Calm Calm - N/A   Overcast
9:10 AM 60.8 °F 50.0 °F 68% 30.13 in 10.0 mi Calm Calm - N/A   Overcast
9:30 AM 60.8 °F 51.8 °F 72% 30.14 in 10.0 mi Calm Calm - N/A   Overcast
9:50 AM 62.6 °F 53.6 °F 72% 30.14 in 10.0 mi Calm Calm - N/A   Overcast
10:10 AM 64.4 °F 50.0 °F 59% 30.13 in 10.0 mi ENE 3.5 mph - N/A   Overcast
10:30 AM 68.0 °F 50.0 °F 52% 30.13 in 10.0 mi ENE 3.5 mph - N/A   Overcast
10:50 AM 69.8 °F 50.0 °F 49% 30.12 in 10.0 mi East 4.6 mph - N/A   Overcast
11:10 AM 68.0 °F 50.0 °F 52% 30.12 in 10.0 mi East 8.1 mph - N/A   Mostly Cloudy
11:30 AM 69.8 °F 50.0 °F 49% 30.11 in 10.0 mi ESE 4.6 mph - N/A   Scattered Clouds
11:50 AM 69.8 °F 51.8 °F 53% 30.11 in 10.0 mi Calm Calm - N/A   Scattered Clouds
12:10 PM 71.6 °F 51.8 °F 50% 30.11 in 10.0 mi ENE 4.6 mph - N/A   Mostly Cloudy
12:30 PM 69.8 °F 51.8 °F 53% 30.12 in 10.0 mi Calm Calm - N/A   Mostly Cloudy
12:50 PM 69.8 °F 51.8 °F 53% 30.11 in 10.0 mi ESE 3.5 mph - N/A   Overcast
1:10 PM 71.6 °F 51.8 °F 50% 30.10 in 10.0 mi Calm Calm - N/A   Overcast
1:30 PM 71.6 °F 51.8 °F 50% 30.09 in 10.0 mi ESE 3.5 mph - N/A   Overcast
1:50 PM 71.6 °F 50.0 °F 46% 30.08 in 10.0 mi Calm Calm - N/A   Overcast
2:10 PM 71.6 °F 50.0 °F 46% 30.08 in 10.0 mi SSE 3.5 mph - N/A   Overcast
2:30 PM 69.8 °F 51.8 °F 53% 30.07 in 10.0 mi Calm Calm - N/A   Overcast
3:10 PM 68.0 °F 53.6 °F 60% 30.06 in 5.0 mi Calm Calm - N/A Rain Light Rain
3:30 PM 68.0 °F 59.0 °F 73% 30.05 in 10.0 mi Calm Calm - N/A   Overcast
3:50 PM 66.2 °F 59.0 °F 78% 30.05 in 7.0 mi Calm Calm - N/A   Light Drizzle
4:10 PM 64.4 °F 60.8 °F 88% 30.03 in 10.0 mi Calm Calm - N/A   Drizzle
4:30 PM 64.4 °F 60.8 °F 88% 30.04 in 7.0 mi ENE 4.6 mph - N/A Rain Rain
4:50 PM 64.4 °F 60.8 °F 88% 30.03 in 10.0 mi ENE 3.5 mph - N/A   Overcast
5:10 PM 64.4 °F 59.0 °F 83% 30.03 in 7.0 mi ENE 5.8 mph - N/A Rain Rain
5:30 PM 64.4 °F 59.0 °F 83% 30.02 in 10.0 mi Calm Calm - N/A   Overcast
5:50 PM 64.4 °F 60.8 °F 88% 30.02 in 10.0 mi East 3.5 mph - N/A   Overcast
6:10 PM 64.4 °F 59.0 °F 83% 30.02 in 10.0 mi Calm Calm - N/A   Overcast
6:30 PM 64.4 °F 60.8 °F 88% 30.01 in 10.0 mi Calm Calm - N/A   Overcast
6:50 PM 64.4 °F 60.8 °F 88% 30.01 in 10.0 mi East 3.5 mph - N/A   Overcast
7:30 PM 62.6 °F 60.8 °F 94% 30.00 in 4.0 mi ENE 3.5 mph - N/A   Drizzle
7:50 PM 62.6 °F 60.8 °F 94% 29.99 in 7.0 mi ENE 4.6 mph - N/A   Overcast
8:10 PM 62.6 °F 60.8 °F 94% 29.98 in 7.0 mi East 5.8 mph - N/A   Overcast
8:30 PM 62.6 °F 60.8 °F 94% 29.98 in 10.0 mi Calm Calm - N/A   Overcast
8:50 PM 62.6 °F 60.8 °F 94% 29.98 in 10.0 mi NE 3.5 mph - N/A   Overcast
9:10 PM 62.6 °F 60.8 °F 94% 29.98 in 10.0 mi ENE 3.5 mph - N/A   Overcast
9:30 PM 62.6 °F 60.8 °F 94% 29.98 in 10.0 mi Calm Calm - N/A   Overcast
9:50 PM 62.6 °F 60.8 °F 94% 29.98 in 10.0 mi Calm Calm - N/A   Overcast
10:10 PM 62.6 °F 59.0 °F 88% 29.98 in 10.0 mi NE 4.6 mph - N/A   Overcast
10:30 PM 62.6 °F 59.0 °F 88% 29.99 in 10.0 mi ENE 5.8 mph - N/A Rain Rain
10:50 PM 62.6 °F 59.0 °F 88% 29.98 in 4.0 mi ENE 5.8 mph - N/A   Drizzle
11:10 PM 62.6 °F 60.8 °F 94% 29.98 in 5.0 mi Calm Calm - N/A   Drizzle
11:30 PM 60.8 °F 60.8 °F 100% 29.99 in 4.0 mi ENE 3.5 mph - N/A Rain Light Rain